St. Joseph, KS

9:14 AM CDT on May 26, 2017 (GMT -0500)
Rosecrans Memorial

Weather History for KSTJ - April, 2013

Change the Weather History Date:

Sunday, April 7, 2013

  Actual Average Record
Temperature  
Mean Temperature 58 °F 52 °F  
Max Temperature 77 °F 64 °F 85 °F (2015)
Min Temperature 39 °F 40 °F 19 °F (2007)
Degree Days  
Heating Degree Days 7 14  
Month to date heating degree days 118 103  
Since 1 July heating degree days 5071 5096  
Cooling Degree Days 0 0  
Month to date cooling degree days 0 0  
Year to date cooling degree days 0 2  
Growing Degree Days 9 (Base 50)    
Moisture  
Dew Point 44 °F    
Average Humidity 58    
Maximum Humidity 89    
Minimum Humidity 26    
Precipitation  
Precipitation 0.94 in 0.10 in 1.13 in (1917)
Month to date precipitation 0.94 0.62  
Year to date precipitation 4.03 4.36  
Sea Level Pressure  
Sea Level Pressure 29.77 in    
Wind  
Wind Speed 8 mph (SE)    
Max Wind Speed 26 mph    
Max Gust Speed 31 mph    
Visibility 9 miles    
Events Rain , Thunderstorm    
T = Trace of Precipitation, MM = Missing Value Source: NWS Daily Summary

Daily Weather History Graph

Daily Weather History Graph

Search for Another Location

Airport or City:

Trip Planner

Search our weather history database for the weather conditions in past years. The results will help you decide how hot, cold, wet, or windy it might be!

Date:

Astronomy

Apr. 07, 2013 Rise Set
Actual Time 6:53 AM CDT 7:50 PM CDT
Civil Twilight 6:26 AM CDT 8:17 PM CDT
Nautical Twilight 5:53 AM CDT 8:50 PM CDT
Astronomical Twilight 5:19 AM CDT 9:24 PM CDT
Moon 5:11 AM CDT (4/7) 5:23 PM CDT (4/7)
Length of Visible Light 13h 51m
Length of Day
12h 56m
Waning Crescent, 8% of the Moon is Illuminated
Apr 7
Waning Crescent
Apr 10
New
Apr 18
First Quarter
Apr 25
Full
May 2
Last Quarter

Hourly Weather History & Observations

Time (CDT) Temp. Dew Point Humidity Pressure Visibility Wind Dir Wind Speed Gust Speed Precip Events Conditions
12:53 AM 51.1 °F 42.1 °F 71% 29.81 in 10.0 mi Calm Calm - N/A   Clear
1:53 AM 50.0 °F 41.0 °F 71% 29.82 in 10.0 mi Calm Calm - N/A   Clear
2:53 AM 41.0 °F 36.0 °F 82% 29.82 in 10.0 mi Calm Calm - N/A   Clear
3:53 AM 41.0 °F 35.1 °F 79% 29.83 in 10.0 mi Calm Calm - N/A   Clear
4:53 AM 42.1 °F 37.0 °F 82% 29.83 in 10.0 mi Calm Calm - N/A   Clear
5:53 AM 41.0 °F 34.0 °F 76% 29.83 in 10.0 mi Calm Calm - N/A   Clear
6:53 AM 41.0 °F 37.0 °F 86% 29.85 in 10.0 mi Calm Calm - N/A   Clear
7:53 AM 43.0 °F 37.9 °F 82% 29.87 in 10.0 mi Calm Calm - N/A   Clear
8:53 AM 52.0 °F 42.1 °F 69% 29.88 in 10.0 mi Calm Calm - N/A   Clear
9:53 AM 59.0 °F 42.1 °F 53% 29.86 in 10.0 mi East 3.5 mph - N/A   Clear
10:53 AM 61.0 °F 42.1 °F 50% 29.87 in 10.0 mi Calm Calm - N/A   Clear
11:53 AM 66.0 °F 43.0 °F 43% 29.86 in 10.0 mi SE 5.8 mph - N/A   Clear
12:53 PM 72.0 °F 43.0 °F 35% 29.83 in 10.0 mi South 10.4 mph - N/A   Clear
1:53 PM 77.0 °F 39.9 °F 26% 29.79 in 10.0 mi South 17.3 mph 24.2 mph N/A   Partly Cloudy
2:53 PM 73.0 °F 37.9 °F 28% 29.78 in 10.0 mi South 15.0 mph - N/A   Overcast
3:53 PM 73.0 °F 39.9 °F 30% 29.75 in 10.0 mi SSE 12.7 mph - N/A   Overcast
4:53 PM 73.0 °F 41.0 °F 31% 29.72 in 10.0 mi SE 13.8 mph 20.7 mph N/A   Overcast
5:53 PM 73.9 °F 42.1 °F 32% 29.69 in 10.0 mi SSE 16.1 mph 24.2 mph N/A   Scattered Clouds
6:53 PM 71.1 °F 41.0 °F 34% 29.67 in 10.0 mi SSE 11.5 mph - N/A   Clear
7:53 PM 66.9 °F 48.9 °F 52% 29.68 in 10.0 mi South 6.9 mph - 0.00 in Rain Light Rain
8:42 PM 66.2 °F 48.2 °F 52% 29.68 in 10.0 mi South 13.8 mph - 0.00 in Thunderstorm Overcast
8:53 PM 64.9 °F 52.0 °F 63% 29.69 in 10.0 mi South 21.9 mph 31.1 mph 0.00 in Rain , Thunderstorm Light Rain
9:12 PM 62.6 °F 51.8 °F 68% 29.71 in 10.0 mi South 12.7 mph - 0.00 in   Overcast
9:53 PM 59.0 °F 52.0 °F 78% 29.69 in 10.0 mi SSE 15.0 mph - 0.02 in   Overcast
10:53 PM 57.0 °F 53.1 °F 87% 29.69 in 5.0 mi NNW 20.7 mph - 0.10 in Rain , Thunderstorm Light Thunderstorms and Rain
11:12 PM 53.6 °F 51.8 °F 94% 29.69 in 1.8 mi NNE 12.7 mph - 0.20 in Rain , Thunderstorm Heavy Thunderstorms and Rain
11:21 PM 51.8 °F 50.0 °F 94% 29.70 in 1.0 mi NE 6.9 mph - 0.63 in Rain , Thunderstorm Heavy Thunderstorms and Rain
11:33 PM 51.8 °F 50.0 °F 94% 29.74 in 2.0 mi Variable 4.6 mph - 0.80 in Rain , Thunderstorm Heavy Thunderstorms and Rain
11:42 PM 51.8 °F 50.0 °F 94% 29.70 in 5.0 mi East 8.1 mph - 0.82 in Rain , Thunderstorm Light Thunderstorms and Rain
11:53 PM 53.1 °F 50.0 °F 89% 29.73 in 10.0 mi NNW 16.1 mph - 0.82 in Rain , Thunderstorm Light Rain